| time (UTC) | temp C | wind direction | speed KPH | gust KPH | rain 1hr cm | rain 24hr cm | rain mn cm | humidity % | barometer mb |
| 20260507023004 | 7 | 342 | 0.0 | 4.8 | 0.00 | 0.00 | 0.00 | 50 | 1014.7 |
| 20260507022004 | 7 | 297 | 1.6 | 3.2 | 0.00 | 0.00 | 0.00 | 48 | 1014.6 |
| 20260507021504 | 7 | 238 | 0.0 | 3.2 | 0.00 | 0.00 | 0.00 | 50 | 1014.6 |
| 20260507021004 | 7 | 234 | 0.0 | 4.8 | 0.00 | 0.00 | 0.00 | 48 | 1014.6 |
| 20260507020004 | 8 | 234 | 3.2 | 4.8 | 0.00 | 0.00 | 0.00 | 50 | 1014.5 |
| 20260507015004 | 8 | 283 | 3.2 | 4.8 | 0.00 | 0.00 | 0.00 | 46 | 1014.5 |
| 20260507014504 | 8 | 283 | 1.6 | 4.8 | 0.00 | 0.00 | 0.00 | 45 | 1014.5 |
| 20260507013503 | 9 | 283 | 4.8 | 4.8 | 0.00 | 0.00 | 0.00 | 42 | 1014.6 |
| 20260507013004 | 9 | 283 | 3.2 | 4.8 | 0.00 | 0.00 | 0.00 | 43 | 1014.6 |
| 20260507012503 | 10 | 283 | 4.8 | 8.0 | 0.00 | 0.00 | 0.00 | 42 | 1014.5 |
| 20260507011504 | 10 | 285 | 4.8 | 9.7 | 0.00 | 0.00 | 0.00 | 42 | 1014.6 |
| 20260507011004 | 10 | 289 | 4.8 | 12.9 | 0.00 | 0.00 | 0.00 | 42 | 1014.6 |
| 20260507005504 | 11 | 273 | 9.7 | 14.5 | 0.00 | 0.00 | 0.00 | 38 | 1014.7 |
| 20260507005003 | 11 | 289 | 9.7 | 16.1 | 0.00 | 0.00 | 0.00 | 37 | 1014.7 |
| 20260507004504 | 12 | 294 | 11.3 | 16.1 | 0.00 | 0.00 | 0.00 | 37 | 1014.7 |
| 20260507004004 | 12 | 280 | 11.3 | 19.3 | 0.00 | 0.00 | 0.00 | 36 | 1014.7 |
| 20260507003504 | 12 | 280 | 14.5 | 19.3 | 0.00 | 0.00 | 0.00 | 35 | 1014.8 |
| 20260507002504 | 12 | 290 | 12.9 | 22.5 | 0.00 | 0.00 | 0.00 | 36 | 1014.9 |
| 20260507001503 | 12 | 277 | 16.1 | 24.1 | 0.00 | 0.00 | 0.00 | 35 | 1015.0 |
| 20260507001004 | 12 | 276 | 17.7 | 29.0 | 0.00 | 0.00 | 0.00 | 34 | 1015.0 |
| 20260507000503 | 12 | 286 | 17.7 | 32.2 | 0.00 | 0.00 | 0.00 | 33 | 1015.1 |
| 20260507000004 | 12 | 289 | 22.5 | 32.2 | 0.00 | 0.00 | 0.00 | 33 | 1015.1 |
| 20260506235504 | 13 | 282 | 24.1 | 32.2 | 0.00 | 0.00 | 0.00 | 33 | 1015.2 |
| 20260506235003 | 13 | 275 | 17.7 | 25.7 | 0.00 | 0.00 | 0.00 | 34 | 1015.2 |
| 20260506234504 | 13 | 286 | 17.7 | 29.0 | 0.00 | 0.00 | 0.00 | 34 | 1015.2 |
| 20260506233504 | 12 | 285 | 19.3 | 33.8 | 0.00 | 0.00 | 0.00 | 33 | 1015.3 |
| 20260506233003 | 13 | 277 | 27.4 | 33.8 | 0.00 | 0.00 | 0.00 | 31 | 1015.3 |
| 20260506232504 | 13 | 274 | 22.5 | 29.0 | 0.00 | 0.00 | 0.00 | 32 | 1015.3 |
| 20260506231504 | 13 | 278 | 20.9 | 29.0 | 0.00 | 0.00 | 0.00 | 32 | 1015.4 |
| 20260506231004 | 13 | 278 | 20.9 | 35.4 | 0.00 | 0.00 | 0.00 | 32 | 1015.5 |
| 20260506230504 | 13 | 268 | 22.5 | 35.4 | 0.00 | 0.00 | 0.00 | 30 | 1015.4 |
| 20260506230004 | 14 | 267 | 29.0 | 35.4 | 0.00 | 0.00 | 0.00 | 29 | 1015.4 |
| 20260506225505 | 13 | 272 | 27.4 | 35.4 | 0.00 | 0.00 | 0.00 | 30 | 1015.4 |
| 20260506225004 | 13 | 270 | 22.5 | 35.4 | 0.00 | 0.00 | 0.00 | 31 | 1015.4 |
| 20260506224506 | 13 | 257 | 27.4 | 35.4 | 0.00 | 0.00 | 0.00 | 31 | 1015.5 |
| 20260506224004 | 13 | 278 | 20.9 | 32.2 | 0.00 | 0.00 | 0.00 | 33 | 1015.5 |
| 20260506223505 | 13 | 295 | 17.7 | 29.0 | 0.00 | 0.00 | 0.00 | 34 | 1015.6 |
| 20260506223004 | 13 | 281 | 20.9 | 35.4 | 0.00 | 0.00 | 0.00 | 32 | 1015.7 |
| 20260506222504 | 12 | 273 | 22.5 | 35.4 | 0.00 | 0.00 | 0.00 | 33 | 1015.8 |
| 20260506222004 | 13 | 292 | 27.4 | 33.8 | 0.00 | 0.00 | 0.00 | 31 | 1015.9 |
| 20260506221504 | 13 | 273 | 20.9 | 32.2 | 0.00 | 0.00 | 0.00 | 33 | 1015.9 |
| 20260506221004 | 13 | 296 | 20.9 | 32.2 | 0.00 | 0.00 | 0.00 | 32 | 1016.0 |
| 20260506220003 | 12 | 289 | 19.3 | 38.6 | 0.00 | 0.00 | 0.00 | 32 | 1016.1 |
| 20260506214504 | 12 | 284 | 22.5 | 37.0 | 0.00 | 0.00 | 0.00 | 33 | 1016.2 |
| 20260506214006 | 12 | 282 | 20.9 | 33.8 | 0.00 | 0.00 | 0.00 | 32 | 1016.4 |
| 20260506213503 | 12 | 302 | 25.7 | 33.8 | 0.00 | 0.00 | 0.00 | 32 | 1016.4 |
| 20260506213004 | 13 | 291 | 22.5 | 33.8 | 0.00 | 0.00 | 0.00 | 32 | 1016.4 |
| 20260506212003 | 12 | 286 | 29.0 | 37.0 | 0.00 | 0.00 | 0.00 | 33 | 1016.6 |
| 20260506211504 | 12 | 284 | 19.3 | 35.4 | 0.00 | 0.00 | 0.00 | 34 | 1016.6 |
| 20260506211003 | 13 | 299 | 22.5 | 45.1 | 0.00 | 0.00 | 0.00 | 34 | 1016.7 |
| 20260506210504 | 13 | 296 | 27.4 | 45.1 | 0.00 | 0.00 | 0.00 | 32 | 1016.7 |
| 20260506210003 | 13 | 300 | 14.5 | 29.0 | 0.00 | 0.00 | 0.00 | 35 | 1016.8 |
| 20260506205503 | 13 | 274 | 20.9 | 35.4 | 0.00 | 0.00 | 0.00 | 34 | 1016.9 |
| 20260506205004 | 12 | 311 | 20.9 | 38.6 | 0.00 | 0.00 | 0.00 | 35 | 1016.9 |
| 20260506204504 | 12 | 282 | 25.7 | 38.6 | 0.00 | 0.00 | 0.00 | 34 | 1017.0 |
| 20260506204004 | 13 | 315 | 22.5 | 37.0 | 0.00 | 0.00 | 0.00 | 32 | 1017.0 |
| 20260506203504 | 13 | 309 | 24.1 | 37.0 | 0.00 | 0.00 | 0.00 | 34 | 1017.1 |
| 20260506203004 | 13 | 302 | 20.9 | 32.2 | 0.00 | 0.00 | 0.00 | 35 | 1017.1 |
| 20260506202503 | 13 | 305 | 19.3 | 32.2 | 0.00 | 0.00 | 0.00 | 35 | 1017.2 |
| 20260506202003 | 13 | 301 | 20.9 | 40.2 | 0.00 | 0.00 | 0.00 | 34 | 1017.2 |
| 20260506201503 | 13 | 283 | 22.5 | 40.2 | 0.00 | 0.00 | 0.00 | 35 | 1017.3 |
| 20260506201004 | 13 | 283 | 14.5 | 40.2 | 0.00 | 0.00 | 0.00 | 35 | 1017.3 |
| 20260506200504 | 12 | 264 | 25.7 | 40.2 | 0.00 | 0.00 | 0.00 | 32 | 1017.3 |
| 20260506200004 | 12 | 301 | 17.7 | 37.0 | 0.00 | 0.00 | 0.00 | 35 | 1017.3 |
| 20260506195503 | 12 | 293 | 25.7 | 41.8 | 0.00 | 0.00 | 0.00 | 33 | 1017.3 |
| 20260506195005 | 13 | 308 | 29.0 | 41.8 | 0.00 | 0.00 | 0.00 | 34 | 1017.4 |
| 20260506194504 | 12 | 305 | 24.1 | 41.8 | 0.00 | 0.00 | 0.00 | 35 | 1017.4 |
| 20260506194004 | 12 | 306 | 27.4 | 41.8 | 0.00 | 0.00 | 0.00 | 33 | 1017.4 |
| 20260506193504 | 12 | 263 | 22.5 | 40.2 | 0.00 | 0.00 | 0.00 | 33 | 1017.5 |
| 20260506193004 | 13 | 310 | 22.5 | 40.2 | 0.00 | 0.00 | 0.00 | 34 | 1017.5 |
| 20260506192504 | 12 | 307 | 29.0 | 40.2 | 0.00 | 0.00 | 0.00 | 38 | 1017.4 |
| 20260506191504 | 12 | 318 | 16.1 | 41.8 | 0.00 | 0.00 | 0.00 | 35 | 1017.6 |
| 20260506190504 | 13 | 312 | 25.7 | 38.6 | 0.00 | 0.00 | 0.00 | 38 | 1017.7 |
| 20260506190004 | 12 | 292 | 27.4 | 38.6 | 0.00 | 0.00 | 0.00 | 39 | 1017.7 |
| 20260506185503 | 13 | 308 | 20.9 | 41.8 | 0.00 | 0.00 | 0.00 | 36 | 1017.9 |
| 20260506185004 | 12 | 286 | 19.3 | 41.8 | 0.00 | 0.00 | 0.00 | 39 | 1017.9 |
| 20260506184504 | 12 | 322 | 17.7 | 40.2 | 0.00 | 0.00 | 0.00 | 37 | 1018.0 |
| 20260506184003 | 12 | 296 | 29.0 | 40.2 | 0.00 | 0.00 | 0.00 | 40 | 1018.0 |
| 20260506183005 | 11 | 308 | 22.5 | 35.4 | 0.00 | 0.00 | 0.00 | 41 | 1018.2 |
| 20260506182504 | 11 | 304 | 19.3 | 38.6 | 0.00 | 0.00 | 0.00 | 41 | 1018.2 |
| 20260506182004 | 11 | 294 | 29.0 | 38.6 | 0.00 | 0.00 | 0.00 | 39 | 1018.2 |
| 20260506181004 | 11 | 282 | 25.7 | 41.8 | 0.00 | 0.00 | 0.00 | 42 | 1018.3 |
| 20260506180504 | 11 | 277 | 29.0 | 38.6 | 0.00 | 0.00 | 0.00 | 38 | 1018.4 |
| 20260506180005 | 12 | 310 | 24.1 | 37.0 | 0.00 | 0.00 | 0.00 | 39 | 1018.4 |
| 20260506175504 | 12 | 312 | 22.5 | 37.0 | 0.00 | 0.00 | 0.00 | 38 | 1018.5 |
| 20260506175004 | 12 | 290 | 25.7 | 37.0 | 0.00 | 0.00 | 0.00 | 38 | 1018.4 |
| 20260506174504 | 12 | 284 | 20.9 | 38.6 | 0.00 | 0.00 | 0.00 | 40 | 1018.5 |
| 20260506174004 | 11 | 262 | 27.4 | 38.6 | 0.00 | 0.00 | 0.00 | 40 | 1018.7 |
| 20260506173503 | 11 | 306 | 22.5 | 35.4 | 0.00 | 0.00 | 0.00 | 42 | 1018.7 |
| 20260506172004 | 11 | 315 | 24.1 | 49.9 | 0.00 | 0.00 | 0.00 | 44 | 1018.9 |
| 20260506171006 | 11 | 322 | 17.7 | 37.0 | 0.00 | 0.00 | 0.00 | 44 | 1018.9 |
| 20260506170504 | 11 | 299 | 22.5 | 46.7 | 0.00 | 0.00 | 0.00 | 44 | 1019.0 |
| 20260506170004 | 11 | 300 | 27.4 | 46.7 | 0.00 | 0.00 | 0.00 | 44 | 1019.0 |
| 20260506165503 | 11 | 279 | 25.7 | 35.4 | 0.00 | 0.00 | 0.00 | 43 | 1019.1 |
| 20260506165004 | 11 | 301 | 19.3 | 33.8 | 0.00 | 0.00 | 0.00 | 48 | 1019.2 |
| 20260506164504 | 10 | 285 | 27.4 | 33.8 | 0.00 | 0.00 | 0.00 | 45 | 1019.2 |
| 20260506164004 | 10 | 303 | 20.9 | 35.4 | 0.00 | 0.00 | 0.00 | 45 | 1019.2 |
| 20260506163503 | 10 | 306 | 19.3 | 35.4 | 0.00 | 0.00 | 0.00 | 45 | 1019.3 |
| 20260506163004 | 10 | 309 | 16.1 | 33.8 | 0.00 | 0.00 | 0.00 | 48 | 1019.4 |
| 20260506162503 | 10 | 279 | 22.5 | 33.8 | 0.00 | 0.00 | 0.00 | 45 | 1019.5 |
| 20260506162005 | 10 | 302 | 16.1 | 32.2 | 0.00 | 0.00 | 0.00 | 46 | 1019.4 |
| 20260506161504 | 10 | 282 | 22.5 | 32.2 | 0.00 | 0.00 | 0.00 | 47 | 1019.4 |
| 20260506161006 | 9 | 280 | 20.9 | 29.0 | 0.00 | 0.00 | 0.00 | 48 | 1019.4 |
| 20260506160504 | 9 | 295 | 19.3 | 29.0 | 0.00 | 0.00 | 0.00 | 49 | 1019.6 |
| 20260506160004 | 9 | 277 | 17.7 | 25.7 | 0.00 | 0.00 | 0.00 | 50 | 1019.5 |
| 20260506155504 | 8 | 310 | 19.3 | 24.1 | 0.00 | 0.00 | 0.00 | 51 | 1019.6 |
| 20260506155004 | 8 | 297 | 14.5 | 24.1 | 0.00 | 0.00 | 0.00 | 50 | 1019.6 |
| 20260506154504 | 8 | 258 | 16.1 | 22.5 | 0.00 | 0.00 | 0.00 | 51 | 1019.7 |
| 20260506153004 | 8 | 297 | 11.3 | 27.4 | 0.00 | 0.00 | 0.00 | 53 | 1019.8 |
| 20260506152004 | 7 | 274 | 14.5 | 27.4 | 0.00 | 0.00 | 0.00 | 53 | 1019.9 |
| 20260506151504 | 7 | 309 | 9.7 | 24.1 | 0.00 | 0.00 | 0.00 | 54 | 1019.9 |
| 20260506151004 | 7 | 274 | 16.1 | 24.1 | 0.00 | 0.00 | 0.00 | 53 | 1019.9 |
| 20260506150504 | 7 | 281 | 11.3 | 19.3 | 0.00 | 0.00 | 0.00 | 54 | 1019.9 |
| 20260506150004 | 7 | 342 | 9.7 | 16.1 | 0.00 | 0.00 | 0.00 | 55 | 1020.0 |
| 20260506145504 | 7 | 309 | 11.3 | 19.3 | 0.00 | 0.00 | 0.00 | 56 | 1020.0 |
| 20260506145004 | 7 | 295 | 9.7 | 19.3 | 0.00 | 0.00 | 0.00 | 57 | 1020.0 |
| 20260506144504 | 6 | 271 | 11.3 | 19.3 | 0.00 | 0.00 | 0.00 | 60 | 1020.0 |
| 20260506144004 | 6 | 264 | 6.4 | 14.5 | 0.00 | 0.00 | 0.00 | 59 | 1020.1 |
| 20260506143504 | 6 | 280 | 8.0 | 16.1 | 0.00 | 0.00 | 0.00 | 60 | 1020.1 |
| 20260506143004 | 6 | 293 | 11.3 | 16.1 | 0.00 | 0.00 | 0.00 | 61 | 1020.1 |
| 20260506142504 | 5 | 280 | 8.0 | 16.1 | 0.00 | 0.00 | 0.00 | 63 | 1020.1 |
| 20260506141503 | 5 | 278 | 8.0 | 14.5 | 0.00 | 0.00 | 0.00 | 70 | 1020.1 |
| 20260506141004 | 5 | 299 | 6.4 | 14.5 | 0.00 | 0.00 | 0.00 | 70 | 1020.2 |
| 20260506140504 | 4 | 273 | 8.0 | 14.5 | 0.00 | 0.00 | 0.00 | 71 | 1020.2 |
| 20260506140003 | 3 | 257 | 8.0 | 11.3 | 0.00 | 0.00 | 0.00 | 73 | 1020.2 |
| 20260506135503 | 3 | 279 | 8.0 | 11.3 | 0.00 | 0.00 | 0.00 | 72 | 1020.1 |
| 20260506135004 | 3 | 277 | 8.0 | 11.3 | 0.00 | 0.00 | 0.00 | 75 | 1020.1 |
| 20260506134504 | 2 | 262 | 8.0 | 11.3 | 0.00 | 0.00 | 0.00 | 75 | 1020.1 |
| 20260506134003 | 2 | 256 | 8.0 | 9.7 | 0.00 | 0.00 | 0.00 | 77 | 1020.0 |
| 20260506133503 | 1 | 264 | 4.8 | 8.0 | 0.00 | 0.00 | 0.00 | 81 | 1020.0 |
| 20260506133004 | 1 | 293 | 4.8 | 9.7 | 0.00 | 0.00 | 0.00 | 82 | 1019.9 |
| 20260506132004 | 0 | 282 | 4.8 | 8.0 | 0.00 | 0.00 | 0.00 | 83 | 1019.9 |
| 20260506131504 | 0 | 304 | 3.2 | 4.8 | 0.00 | 0.00 | 0.00 | 84 | 1019.8 |
| 20260506131003 | 0 | 287 | 4.8 | 4.8 | 0.00 | 0.00 | 0.00 | 84 | 1019.7 |
| 20260506130504 | 0 | 289 | 3.2 | 4.8 | 0.00 | 0.00 | 0.00 | 85 | 1019.7 |
| 20260506130005 | 0 | 311 | 3.2 | 4.8 | 0.00 | 0.00 | 0.00 | 86 | 1019.7 |
| 20260506125004 | -1 | 284 | 4.8 | 4.8 | 0.00 | 0.00 | 0.00 | 86 | 1019.5 |
| 20260506124504 | -1 | 300 | 3.2 | 4.8 | 0.00 | 0.00 | 0.00 | 86 | 1019.5 |
| 20260506124004 | -1 | 284 | 3.2 | 4.8 | 0.00 | 0.00 | 0.00 | 87 | 1019.5 |
| 20260506123506 | -1 | 261 | 3.2 | 4.8 | 0.00 | 0.00 | 0.00 | 87 | 1019.4 |
| 20260506123004 | -1 | 261 | 4.8 | 4.8 | 0.00 | 0.00 | 0.00 | 87 | 1019.4 |
| 20260506122503 | -2 | 261 | 4.8 | 4.8 | 0.00 | 0.00 | 0.00 | 87 | 1019.4 |
| 20260506121503 | -2 | 256 | 3.2 | 4.8 | 0.00 | 0.00 | 0.00 | 87 | 1019.2 |
| 20260506121004 | -2 | 253 | 4.8 | 4.8 | 0.00 | 0.00 | 0.00 | 87 | 1019.2 |
| 20260506120503 | -2 | 232 | 3.2 | 4.8 | 0.00 | 0.00 | 0.00 | 87 | 1019.0 |
| 20260506120004 | -2 | 232 | 3.2 | 4.8 | 0.00 | 0.00 | 0.00 | 88 | 1019.0 |
| 20260506115503 | -2 | 232 | 3.2 | 4.8 | 0.00 | 0.00 | 0.00 | 87 | 1019.0 |
| 20260506115004 | -2 | 232 | 1.6 | 3.2 | 0.00 | 0.00 | 0.00 | 87 | 1018.8 |
| 20260506114503 | -2 | 232 | 1.6 | 3.2 | 0.00 | 0.00 | 0.00 | 87 | 1018.7 |
| 20260506114005 | -2 | 232 | 3.2 | 4.8 | 0.00 | 0.00 | 0.00 | 87 | 1018.7 |
| 20260506113004 | -2 | 232 | 3.2 | 4.8 | 0.00 | 0.00 | 0.00 | 87 | 1018.7 |
| 20260506112504 | -2 | 232 | 4.8 | 4.8 | 0.00 | 0.00 | 0.00 | 88 | 1018.7 |
| 20260506112004 | -3 | 232 | 3.2 | 4.8 | 0.00 | 0.00 | 0.00 | 88 | 1018.6 |
| 20260506111504 | -3 | 232 | 3.2 | 4.8 | 0.00 | 0.00 | 0.00 | 88 | 1018.6 |
| 20260506111004 | -3 | 232 | 4.8 | 8.0 | 0.00 | 0.00 | 0.00 | 88 | 1018.6 |
| 20260506110504 | -3 | 232 | 4.8 | 8.0 | 0.00 | 0.00 | 0.00 | 87 | 1018.6 |
| 20260506110004 | -3 | 232 | 4.8 | 9.7 | 0.00 | 0.00 | 0.00 | 87 | 1018.6 |
| 20260506104504 | -4 | 228 | 8.0 | 8.0 | 0.00 | 0.00 | 0.00 | 83 | 1018.5 |
| 20260506104004 | -4 | 291 | 3.2 | 4.8 | 0.00 | 0.00 | 0.00 | 82 | 1018.4 |
| 20260506103504 | -3 | 291 | 0.0 | 4.8 | 0.00 | 0.00 | 0.00 | 81 | 1018.3 |
| 20260506103004 | -3 | 291 | 1.6 | 4.8 | 0.00 | 0.00 | 0.00 | 82 | 1018.2 |
| 20260506102504 | -3 | 291 | 1.6 | 4.8 | 0.00 | 0.00 | 0.00 | 85 | 1018.2 |
| 20260506102004 | -3 | 291 | 3.2 | 4.8 | 0.00 | 0.00 | 0.00 | 85 | 1018.1 |
| 20260506101503 | -3 | 291 | 4.8 | 4.8 | 0.00 | 0.00 | 0.00 | 84 | 1018.1 |
| 20260506100503 | -3 | 291 | 3.2 | 4.8 | 0.00 | 0.00 | 0.00 | 83 | 1018.2 |
| 20260506095503 | -3 | 291 | 3.2 | 9.7 | 0.00 | 0.00 | 0.00 | 81 | 1018.1 |
| 20260506095003 | -3 | 291 | 4.8 | 12.9 | 0.00 | 0.00 | 0.00 | 80 | 1018.1 |
| 20260506094503 | -2 | 245 | 9.7 | 12.9 | 0.00 | 0.00 | 0.00 | 78 | 1018.2 |
| 20260506094004 | -2 | 285 | 3.2 | 4.8 | 0.00 | 0.00 | 0.00 | 82 | 1018.2 |
| 20260506093504 | -2 | 317 | 3.2 | 4.8 | 0.00 | 0.00 | 0.00 | 81 | 1018.1 |
| 20260506093004 | -2 | 319 | 3.2 | 4.8 | 0.00 | 0.00 | 0.00 | 80 | 1018.0 |
| 20260506092504 | -2 | 327 | 3.2 | 4.8 | 0.00 | 0.00 | 0.00 | 80 | 1018.0 |
| 20260506092004 | -2 | 324 | 3.2 | 4.8 | 0.00 | 0.00 | 0.00 | 80 | 1017.9 |
| 20260506091506 | -1 | 322 | 3.2 | 4.8 | 0.00 | 0.00 | 0.00 | 79 | 1018.0 |
| 20260506091004 | -1 | 314 | 4.8 | 4.8 | 0.00 | 0.00 | 0.00 | 79 | 1018.0 |
| 20260506090504 | -1 | 313 | 4.8 | 4.8 | 0.00 | 0.00 | 0.00 | 79 | 1017.8 |
| 20260506090004 | -1 | 323 | 3.2 | 4.8 | 0.00 | 0.00 | 0.00 | 79 | 1017.7 |
| 20260506085504 | -1 | 322 | 4.8 | 8.0 | 0.00 | 0.00 | 0.00 | 79 | 1017.5 |
| 20260506085006 | -1 | 316 | 4.8 | 8.0 | 0.00 | 0.00 | 0.00 | 79 | 1017.6 |
| 20260506084504 | -1 | 310 | 4.8 | 8.0 | 0.00 | 0.00 | 0.00 | 79 | 1017.7 |
| 20260506084005 | -1 | 309 | 4.8 | 4.8 | 0.00 | 0.00 | 0.00 | 78 | 1017.7 |
| 20260506083004 | -1 | 299 | 4.8 | 8.0 | 0.00 | 0.00 | 0.00 | 78 | 1017.9 |
| 20260506082504 | -1 | 294 | 6.4 | 8.0 | 0.00 | 0.00 | 0.00 | 78 | 1018.0 |
| 20260506082004 | -1 | 297 | 8.0 | 8.0 | 0.00 | 0.00 | 0.00 | 78 | 1018.0 |
| 20260506081504 | -1 | 288 | 4.8 | 8.0 | 0.00 | 0.00 | 0.00 | 77 | 1018.0 |
| 20260506081005 | -1 | 278 | 4.8 | 8.0 | 0.00 | 0.00 | 0.00 | 77 | 1018.0 |
| 20260506080504 | -1 | 268 | 8.0 | 8.0 | 0.00 | 0.00 | 0.00 | 77 | 1018.0 |
| 20260506073504 | 0 | 316 | 8.0 | 9.7 | 0.00 | 0.00 | 0.00 | 73 | 1017.3 |
| 20260506073003 | 0 | 321 | 8.0 | 9.7 | 0.00 | 0.00 | 0.00 | 73 | 1017.2 |
| 20260506072504 | 0 | 319 | 4.8 | 9.7 | 0.00 | 0.00 | 0.00 | 74 | 1017.1 |
| 20260506072003 | 0 | 326 | 8.0 | 9.7 | 0.00 | 0.00 | 0.00 | 75 | 1017.2 |
| 20260506071004 | 0 | 307 | 4.8 | 8.0 | 0.00 | 0.00 | 0.00 | 74 | 1017.1 |
| 20260506070504 | 0 | 304 | 4.8 | 8.0 | 0.00 | 0.00 | 0.00 | 74 | 1017.2 |
| 20260506062505 | 0 | 307 | 3.2 | 4.8 | 0.00 | 0.00 | 0.00 | 74 | 1017.5 |
| 20260506062004 | 0 | 338 | 1.6 | 4.8 | 0.00 | 0.00 | 0.00 | 73 | 1017.5 |
| 20260506061506 | 0 | 355 | 1.6 | 4.8 | 0.00 | 0.00 | 0.00 | 74 | 1017.4 |
| 20260506061004 | 0 | 342 | 1.6 | 4.8 | 0.00 | 0.00 | 0.00 | 75 | 1017.3 |
| 20260506060504 | -1 | 334 | 1.6 | 4.8 | 0.00 | 0.00 | 0.00 | 77 | 1017.3 |
| 20260506050504 | 0 | 344 | 1.6 | 3.2 | 0.00 | 0.00 | 0.00 | 66 | 1016.5 |
| 20260506045004 | 1 | 345 | 1.6 | 4.8 | 0.00 | 0.00 | 0.00 | 61 | 1016.5 |
| 20260506044504 | 2 | 345 | 1.6 | 4.8 | 0.00 | 0.00 | 0.00 | 61 | 1016.7 |
| 20260506044004 | 2 | 342 | 3.2 | 4.8 | 0.00 | 0.00 | 0.00 | 61 | 1016.6 |
| 20260506043503 | 2 | 335 | 3.2 | 4.8 | 0.00 | 0.00 | 0.00 | 62 | 1016.7 |
| 20260506043004 | 2 | 335 | 3.2 | 4.8 | 0.00 | 0.00 | 0.00 | 62 | 1016.9 |
| 20260506042503 | 2 | 345 | 4.8 | 4.8 | 0.00 | 0.00 | 0.00 | 62 | 1016.9 |
| 20260506042004 | 2 | 340 | 4.8 | 8.0 | 0.00 | 0.00 | 0.00 | 63 | 1016.9 |
| 20260506041504 | 2 | 342 | 4.8 | 8.0 | 0.00 | 0.00 | 0.00 | 63 | 1016.9 |
| 20260506041004 | 2 | 340 | 3.2 | 4.8 | 0.00 | 0.00 | 0.00 | 62 | 1016.9 |
| 20260506040503 | 2 | 334 | 3.2 | 4.8 | 0.00 | 0.00 | 0.00 | 62 | 1016.9 |
| 20260506040004 | 2 | 331 | 3.2 | 4.8 | 0.00 | 0.00 | 0.00 | 62 | 1016.9 |
| 20260506035004 | 1 | 325 | 3.2 | 4.8 | 0.00 | 0.00 | 0.00 | 63 | 1016.9 |
| 20260506034504 | 2 | 317 | 3.2 | 4.8 | 0.00 | 0.00 | 0.00 | 62 | 1017.0 |
| 20260506034004 | 2 | 322 | 3.2 | 4.8 | 0.00 | 0.00 | 0.00 | 62 | 1016.9 |
| 20260506033504 | 2 | 319 | 3.2 | 4.8 | 0.00 | 0.00 | 0.00 | 61 | 1017.0 |
| 20260506032504 | 3 | 327 | 4.8 | 8.0 | 0.00 | 0.00 | 0.00 | 58 | 1016.7 |
| 20260506031503 | 3 | 332 | 4.8 | 8.0 | 0.00 | 0.00 | 0.00 | 57 | 1016.7 |
| 20260506031004 | 3 | 333 | 4.8 | 4.8 | 0.00 | 0.00 | 0.00 | 57 | 1016.6 |
| 20260506030504 | 3 | 332 | 3.2 | 8.0 | 0.00 | 0.00 | 0.00 | 56 | 1016.6 |
| 20260506030004 | 3 | 338 | 4.8 | 8.0 | 0.00 | 0.00 | 0.00 | 56 | 1016.5 |
| 20260506025503 | 3 | 340 | 4.8 | 9.7 | 0.00 | 0.00 | 0.00 | 56 | 1016.4 |
| 20260506025004 | 3 | 348 | 4.8 | 9.7 | 0.00 | 0.00 | 0.00 | 56 | 1016.3 |
| 20260506024503 | 3 | 339 | 4.8 | 9.7 | 0.00 | 0.00 | 0.00 | 57 | 1016.3 |
| 20260506024004 | 3 | 347 | 4.8 | 9.7 | 0.00 | 0.00 | 0.00 | 57 | 1016.1 |